Location: Carlingford
(46.7848°N, 67.7474°W)
Time: 06:20:14
(UTC+00:00)

Envisat - Pass Details

Date: 06 December 2022
Orbit: 763 x 765 km, 98.2° (Epoch: 27 January)

Event Time Altitude Azimuth Distance (km) Brightness Sun altitude
Rises 09:07:41 0° 11° (N) 3,245 6.3 -28.7°
Reaches altitude 10° 09:10:00 10° 9° (N) 2,314 5.5 -28.3°
Enters shadow 09:11:23 19° 6° (N) 1,780 4.9 -28.1°
